Location: *
(50.8512°N, 5.6907°E)
Time: 11:09:01
(UTC+00:00)

Cosmos 968 Rocket - Pass Details

Date: 09 April 2020
Orbit: 740 x 771 km, 74.0° (Epoch: 25 May)

Event Time Altitude Azimuth Distance (km) Brightness Sun altitude
Exits shadow 22:25:37 43° 47° (NE) 1,067 4.3 -29.0°
Drops below altitude 10° 22:29:16 10° 29° (NNE) 2,320 6.4 -29.2°
Sets 22:31:40 0° 27° (NNE) 3,254 7.3 -29.4°
